Location: Piotrkow Trybunalski
(51.4000°N, 19.6830°E)
Time: 01:51:00
(UTC+01:00)

A-11 Canister half - Pass Details

Date: 12 December 2023
Orbit: 1512 x 1687 km, 47.2° (Epoch: 23 February)

Event Time Altitude Azimuth Distance (km) Brightness Sun altitude
Exits shadow 02:38:25 35° 134° (SE) 2,454 10.0 -44.8°
Drops below altitude 10° 02:43:41 10° 121° (ESE) 3,928 11.4 -44.1°
Sets 02:46:55 0° 118° (ESE) 4,926 12.1 -43.6°
